Weather in Omsukchan

Russia / Magadan District     62°30′55″N   155°47′00″E
temp.,
°C
wind,
m/s
gust,
m/s
humid.,
%
clouds,
%
prec.,
mm/h
press.,
hPa
HPBL,
m
25 january, tue
tue2523:00−33nw2297100 0.1 102229
02:00−33nw229799 0.0 102123
05:00−33nw229792 0.1 102120
08:00−34nw229896 0.0 102112
11:00−31nnw229690 0.1 102083
14:00−30n229684 0.1 1019144
17:00−32nnw229983 0.1 102017
20:00−32nnw119983 0.0 10219
26 january, wed
wed2623:00−32nnw119991 0.1 102110
02:00−33nnw1199100 0.0 102210
05:00−31n119895 0.1 102221
08:00−34nnw1110068 0.0 10249
11:00−35nw1198100 0.0 10259
14:00−31n2296100 0.0 102445
17:00−35nnw119856 0.0 10269
20:00−31n2298100 0.0 102623
27 january, thu
thu2723:00−35nnw229957 0.1 10279
02:00−35nw229879 0.0 10299
05:00−36nnw229967 0.0 10299
08:00−35nnw229972 0.0 103013
11:00−31n3499100 0.0 1027115
14:00−28nne4698100 0.1 1025183
17:00−29nne4598100 0.4 1025145
20:00−29nne4698100 0.2 1025123
28 january, fri
fri2823:00−28nne4699100 0.4 1024116
02:00−25nne4798100 0.3 1023120
05:00−23nne579890 0.4 1022100
08:00−21nne579859 0.1 102191
11:00−19nne5698100 0.3 1020125
14:00−19nne469647 0.1 101997
17:00−21n459895 0.1 101951
20:00−21n459697 0.0 101947
29 january, sat
sat2923:00−20n4596100 0.0 101857
02:00−22n439869 0.0 101836
05:00−19nne4596100 0.0 101796
08:00−21nne3396100 0.0 101930
11:00−21nne3395100 0.0 102028
14:00−20nne339544 0.0 102034
17:00−20nne3296100 0.1 102132
20:00−24n2298100 0.0 10239